Showing default

IRIDIUM 160, 43569

Orbit data source: Space-Track

IRIDIUM 160, 43569 is a payload satellite owned by Iridium (US) in LEO that was launched on Wed, 25 Jul 2018 UTC via an FALCON 9 launch vehicle from the Air Force Western Test Range (AFWTR). Payload-class satellites include a variety of spacecraft equipped with specific instruments for various scientific and technological missions. These include communications satellites like Starlink; space stations such as the ISS; scientific satellites like the Hubble; Earth observation satellites from companies like Planet Labs, Umbra, and HawkEye 360; GPS; miniature CubeSats for education and research; and military/defense satellites.

Loading next visibility...
Identifier
43569, 2018-061A
Orbit
LEO
Country
Flag of USUS
Related business
Manufacturer
NGIS SSG Gilbert
Mission
Operational Commercial Communications
Bus & Motor
ELITEBUS, Unknown motor
Mass
860 kg wet, 700 kg dry
Launch date (UTC)
2018-07-25 (7 years ago)
Launch vehicle
FALCON 9
Launch site
Air Force Western Test Range (AFWTR)
Object type
Payload
Rocket body
Debris
Shape & HBR
Trap Box + 2 Pan, 4.8 m
Radar Cross Section
10.154 m², Large (>1 m²)

Expand to show TLE details & history
Last TLE update: 4 hours ago

TLE from 4 hours ago
0 IRIDIUM 160
1 43569U 18061A   25292.98687970  .00000269  00000-0  89146-4 0  9996
2 43569  86.4001 157.2045 0002213  91.3447 268.8002 14.34219109378949
Epoch: 2025-10-19T23:41Z
TLE epoch observation values (Epoch: 2025-10-19T23:41:06.406Z)
Latitude
-0.00003°
Longitude
133.23214°
Altitude
780.747 km
Speed
7.463 km/s
True Right ascension
10h 28m 49s
True Declination
0° 00' 00"
Sunlit
Object was in daylight at epoch
Visualization orbit readout
Latitude
Unknown
Longitude
Unknown
Altitude
Unknown
Speed
Unknown
Apparent Right ascension
Unknown
Apparent Declination
Unknown
Sunlit
N/A
Visualization observer readout
Local Sidereal Time
22:56:28
Azimuth
Unknown
Elevation
Unknown
Doppler factor
Unknown
Orbital elements
Apogee altitude
776.21 km
Perigee altitude
773.044 km
Semi-major axis
7,152.764 km
Eccentricity
0.00022
Inclination
86.4001°
RAAN
157.2045°
Arg. of periapsis
91.3447°
True anomaly
268.77485°
Mean anomaly
268.8002°
Eccentric anomaly
268.78752°
Mean motion
3.58783 °/min
Orbital period
100.34 mins
BSTAR
0.000089146
Loading maneuver chart data...
Computing Atmospheric mass density...
Loading historical data...
Loading historical data...
Loading historical data...
Loading historical data...
Loading historical data...
Loading historical data...
Loading historical data...

Documentation

Showing up to 5 results
|